Weather History for PHKO - October, 2014

Change the Weather History Date:

Sunday, October 5, 2014

  Actual Average (WUND) Record (WUND)
Temperature  
Mean Temperature 82 °F -  
Max Temperature 87 °F - - (-1)
Min Temperature 77 °F - - (-1)
Cooling Degree Days 17    
Growing Degree Days 32 (Base 50)    
Moisture  
Dew Point 71 °F    
Average Humidity 69    
Maximum Humidity 77    
Minimum Humidity 61    
Precipitation  
Precipitation 0.00 in - - ()
Sea Level Pressure  
Sea Level Pressure 29.89 in    
Wind  
Wind Speed 5 mph (NNW)    
Max Wind Speed 13 mph    
Max Gust Speed -    
Visibility 10 miles    
Events      
Averages and records for this station are not official NWS values.
T = Trace of Precipitation, MM = Missing Value Source: NWS Daily Summary

Daily Weather History Graph

Daily Weather History Graph

Search for Another Location

Airport or City:

Trip Planner

Search our weather history database for the weather conditions in past years. The results will help you decide how hot, cold, wet, or windy it might be!

Date:

Astronomy

Oct. 05, 2014 Rise Set
Actual Time 6:16 AM HST 6:08 PM HST
Civil Twilight 5:54 AM HST 6:30 PM HST
Nautical Twilight 5:28 AM HST 6:56 PM HST
Astronomical Twilight 5:03 AM HST 7:21 PM HST
Moon 4:15 PM HST (10/5) 3:28 AM HST (10/5)
Length of Visible Light 12h 36m
Length of Day
11h 52m
Waxing Gibbous, 91% of the Moon is Illuminated
Oct 5
Waxing Gibbous
Oct 8
Full
Oct 15
Last Quarter
Oct 23
New
Oct 30
First Quarter

Hourly Weather History & Observations

Time (HST) Temp. Heat Index Dew Point Humidity Pressure Visibility Wind Dir Wind Speed Gust Speed Precip Events Conditions
12:53 AM 79.0 °F - 71.1 °F 77% 29.91 in 10.0 mi West 3.5 mph - N/A   Overcast
1:53 AM 80.1 °F 83.6 °F 71.1 °F 74% 29.90 in 10.0 mi Calm Calm - N/A   Overcast
2:53 AM 79.0 °F - 71.1 °F 77% 29.88 in 10.0 mi Calm Calm - N/A   Clear
3:53 AM 79.0 °F - 70.0 °F 74% 29.87 in 10.0 mi ENE 3.5 mph - N/A   Mostly Cloudy
4:53 AM 77.0 °F - 69.1 °F 76% 29.86 in 10.0 mi ENE 3.5 mph - N/A   Clear
5:53 AM 77.0 °F - 69.1 °F 76% 29.88 in 10.0 mi ESE 3.5 mph - N/A   Scattered Clouds
6:53 AM 78.1 °F - 68.0 °F 71% 29.88 in 10.0 mi ENE 4.6 mph - N/A   Scattered Clouds
7:53 AM 81.0 °F 84.9 °F 71.1 °F 72% 29.90 in 10.0 mi Calm Calm - N/A   Partly Cloudy
8:53 AM 82.0 °F 86.7 °F 72.0 °F 71% 29.92 in 10.0 mi WNW 5.8 mph - N/A   Scattered Clouds
9:53 AM 84.9 °F 90.1 °F 71.1 °F 63% 29.92 in 10.0 mi NW 10.4 mph - N/A   Clear
10:53 AM 86.0 °F 92.2 °F 72.0 °F 63% 29.91 in 10.0 mi NW 10.4 mph - N/A   Scattered Clouds
11:53 AM 87.1 °F 93.6 °F 72.0 °F 61% 29.90 in 10.0 mi WNW 12.7 mph - N/A   Scattered Clouds
12:53 PM 86.0 °F 93.0 °F 73.0 °F 65% 29.87 in 10.0 mi NW 12.7 mph - N/A   Scattered Clouds
1:53 PM 86.0 °F 93.0 °F 73.0 °F 65% 29.86 in 10.0 mi WNW 12.7 mph - N/A   Clear
2:53 PM 86.0 °F 91.5 °F 71.1 °F 61% 29.85 in 10.0 mi WNW 10.4 mph - N/A   Clear
3:53 PM 86.0 °F 91.5 °F 71.1 °F 61% 29.86 in 10.0 mi WNW 10.4 mph - N/A   Clear
4:53 PM 84.0 °F 88.4 °F 70.0 °F 63% 29.86 in 10.0 mi WNW 8.1 mph - N/A   Clear
5:53 PM 82.9 °F 87.0 °F 70.0 °F 65% 29.87 in 10.0 mi West 4.6 mph - N/A   Clear
6:53 PM 82.0 °F 86.3 °F 71.1 °F 69% 29.89 in 10.0 mi WNW 4.6 mph - N/A   Clear
7:53 PM 82.0 °F 85.9 °F 70.0 °F 67% 29.91 in 10.0 mi WNW 3.5 mph - N/A   Clear
8:53 PM 82.0 °F 86.3 °F 71.1 °F 69% 29.93 in 10.0 mi NW 3.5 mph - N/A   Clear
9:53 PM 81.0 °F 84.9 °F 71.1 °F 72% 29.94 in 10.0 mi Calm Calm - N/A   Scattered Clouds
10:53 PM 80.1 °F 83.2 °F 70.0 °F 71% 29.93 in 10.0 mi ENE 4.6 mph - N/A   Scattered Clouds
11:32 PM 80.6 °F 83.9 °F 69.8 °F 70% 29.92 in 10.0 mi ENE 5.8 mph - N/A   Mostly Cloudy
11:48 PM 78.8 °F - 69.8 °F 74% 29.92 in 10.0 mi NE 5.8 mph - N/A   Mostly Cloudy
11:53 PM 79.0 °F - 69.1 °F 72% 29.92 in 10.0 mi NE 5.8 mph - N/A   Mostly Cloudy